Objednávky za rok 2017

január február marec apríl máj jún júl august september október november december

Číslo Dátum vyhotovenia Názov a adresa dodávateľa IČO Popis plnenia Odhadovaná suma bez DPH Zmluva
11392 02.05.2017 INTERFLON Czech, s.r.o., Praha, ČR 43002056 špička na dekalamitku 90,00  nie
11393 02.05.2017 TECH-LIT SK s.r.o., Žilina 50006193 OOPP, pomocný materiál 710,50  nie
11394 02.05.2017 HYDREX, s.r.o., Hriňová 31633072 oprava chladiča, výmena oleja 350,00  nie
11395 02.05.2017 MOB Interier s.r.o., Trenčín 44948271 kreslo kancelárske 90,00  nie
11396 03.05.2017 VILTECH s.r.o., Zvolen 50754840 ND na priemyselný vysávač 168,40  nie
11397 03.05.2017 BELIČKOVÁ s.r.o., Zvolen 45902836 maliarske potreby, lepenka, riedidlá 894,04  nie
11398 05.05.2017 ELBEK, s.r.o., Príbovce 46646710 údržba distrib. olejových transformátorov 8 073,00  áno
11399 05.05.2017 VANKA elektro s.r.o., Zvolen 47188863 svietidlá 122,75  nie
11400 05.05.2017 D.Paučula-ELECTRICAL SERVICES 35493267 OP a OS bleskozvodov 2 180,00  nie
11401 05.05.2017 AUTOKODUS s.r.o., Zvolen 36530751 autopríslušenstvo 163,65  nie
11402 05.05.2017 MIKAPO s.r.o., Zvolen 44721277 minerálna voda 222,72  nie
11403 05.05.2017 GUFERO BB, s.r.o., Zvolen 36052230 ložiská 132,39  nie
11404 05.05.2017 TP 2, s.r.o., Strážske 36766763 obežné koleso s hriadeľom 4 750,00  nie
11405 10.05.2017 IMET-AKE s.r.o., Zvolen 31341870 ložiská 75,64  nie
11406 10.05.2017 IPU Slovensko s.r.o., Bratislava 35884380 diagnostika odvádzačov kondenzátu 193,20  nie
11407 10.05.2017 POKORNÝ, spol. s r.o., Brno, ČR 46983864 oprava vodoznaku 890,00  nie
11408 10.05.2017 Pavol Ujhelyi, Štefanov 30095417 servisná prehliadka kotla K6 268,00  nie
11409 10.05.2017 EURO STEEL s.r.o., Zvolen 36057819 hutný materiál 428,76  nie
11410 10.05.2017 ProMinent, s.r.o., Bratislava 31381821 sonda a filtračné vložky 253,00  nie
11411 10.05.2017 TEMPRA, s.r.o., Banská Bystrica 31639607 technický audit železničnej vlečky 550,00  nie
11412 10.05.2017 Duslo a.s., Šaľa 35826487 odstránenie netesností metódou Furmanite 3 433,00  nie
11413 10.05.2017 PSP Pohony a.s., Přerov, Čr 47674784 prevodovka Envig 8 868,00  nie
11414 10.05.2017 ZAT a.s., Plzeň, ČR 63910802 oprava záskokového zdroja 434,00  nie
11415 10.05.2017 TCF Vzduchotechnika, Prachatice, ČR 63910802 úprava rotoru ventilátora 23 823,00  nie
11416 10.05.2017 OTNS, a.s., Bratislava 46881239 oprava wi-fi prepojenia 717,25  nie
11417 10.05.2017 ABB, s.r.o., Bratislava 31389325 preventívna prehliadka frekv. Meničov 1 325,00  nie
11418 11.05.2017 Hansa-flex Hydraulik, Košťany n. Turcom 31642608 diagnostika hydraulických agregátov 256,00  nie
11419 11.05.2017 ELBEK, s.r.o., Príbovce 46646710 údržba suchých transformátorov 9 976,00  nie
11420 11.05.2017 ZVVZ-Enven Engineering, a.s., Košice 36743291 revízia elektrostatických odlučovačov 2 600,00  nie
11421 11.05.2017 D.Paučula-ELECTRICAL SERVICES 35493267 profylaktická prehliadka gener. Vypínača 1 115,00  nie
11422 11.05.2017 AGRI-SERVIS, s.r.o., Tovarníky 36849685 snímač teploty 200,00  nie
11423 11.05.2017 SCHIPRO SK, s.r.o., Bystrička 36426989 uhlová brúska 91,83  nie
11424 12.05.2017 AUTOKODUS s.r.o., Zvolen 36530751 výmena rozvodu a servisná prehliadka 500,00  nie
11425 12.05.2017 CHIVA SK spol. s r.o., Zvolen 46472762 odvádzač kondenzátu 720,00  nie
11426 11.05.2017 1.DMS s.r.o., Zvolen 36021091 prenájom autožeriavu 65,00  nie
11427 15.05.2017 SLOVING, spol. s r.o., Bratislava 17321069 údržba a oprava strojnotechn. Zariadení 14 139,48  áno
11428 15.05.2017 EPO ZVOLEN s.r.o., Zvolen 652598 oprava ponorného čerpadla 1 181,00  nie
11429 15.05.2017 SLOSO SERVIS s.r.o., Zvolen 43898785 letné pneumatiky 240,00  nie
11430 16.05.2017 Elektrik-Group, s.r.o., Kováčová 36745090 OP a OS elektrickej inštalácie 2 739,00  nie
11431 16.05.2017 malček transport s.r.o., Zvolen 36638951 preprava obežných kolies ventilátora 750,00  nie
11432 16.05.2017 UNICARBACK, s.r.o., Žilina 46643206 kosenie trávnatých plôch - mesiac jún 1 500,00  áno
11433 17.05.2017 Bilfinger Industrial Services Czech s.r.o., Most 47784709 oprava ventilov turbíny 28 376,53  áno
11434 17.05.2017 D.Paučula-ELECTRICAL SERVICES 35493267 revízia rozvádzača 6kV Irodel 1 975,00  nie
11435 17.05.2017 TECHNIK-stavba a bývanie s.r.o., ZV 47531711 inštalačný materiál 27,25  nie
11436 17.05.2017 Kall, s.r.o., Hriňová 36724220 ozubený pastorok 1 281,50  nie
11437 17.05.2017 Kall, s.r.o., Hriňová 36724220 ozubený pastorok 3 204,30  nie
11438 17.05.2017 UnionOcel s.r.o., Praha, ČR 26487292 čapy 546,00  nie
11439 19.05.2017 FPM s.a., Mikolów, Poľsko 271569520 revízia dohorievacieho roštu K01, K02 1 980,00  nie
11440 19.05.2017 NCH SLOVAKIA s.r.o., Bratislava 34096043 čistiace a odmasťovacie prostriedky 938,82  nie
11441 19.05.2017 DONAUCHEM s.r.o., Bratislava 31359248 čpavková voda 585,00  nie
11442 19.05.2017 GUFERO BB, s.r.o., Zvolen 36052230 ložiská, guferá 92,25  nie
11443 19.05.2017 NCH SLOVAKIA s.r.o., Bratislava 34096043 mazivá, uvoľňovače 1 070,82  nie
11444 22.05.2017 BRONSWERK HEAT TRANSFER, Benešov n. Ploučnicí 14867125 šéfmontáž pri montáži ventilátora 995,00  nie
11445 22.05.2017 D.K.C., s.r.o., Zvolen 31571727 nafta motorová 30 025,00  nie
11446 22.05.2017 SLOSO SERVIS s.r.o., Zvolen 43898785 pneumatiky 120,00  nie
11447 22.05.2017 SLOVING, spol. s r.o., Bratislava 17321069 OP a OS napájacej nádrže K4 a aK5 887,90  áno
11448 22.05.2017 MOSA Solution s.r.o., Čížkovice, ČR 28736541 servis akustických meničov 2 071,58  nie
11449 23.05.2017 TechnoNova, s.r.o., Nováky 45372900 pogumované potrubie 300,00  nie
11450 24.05.2017 PRAKTIKPUMPY SK s.r.o., Zvolen 50638629 inštalačný materiál 56,00  nie
11451 24.05.2017 PharmaSynergix, s.r.o., Košice 36709221 tesnenie  926,12  nie
11452 24.05.2017 OSKO, a.s., Banská Bystrica 36044717 batérie  35,36  nie
11453 24.05.2017 IMET-AKE s.r.o., Zvolen 31341870 ozubený remeň 193,20  nie
11454 24.05.2017 Emília Orságová-ORLÍK, Zvolen 37548191 prenájom športového areálu 1 000,00  nie
11455 24.05.2017 VST Engineering, spol. s r.o., Pardubice, ČR 25264087 tlaková skúška K01 a K02 12 192,00  nie
11456 24.05.2017 G.P.S. Zvolen, spol. s r.o., Zvolen 36639231 vypracovanie mapy vlastníctva pozemkov 130,00  nie
11457 24.05.2017 Lucia Rošková R-INTERIÉR, Zvolen 41192516 kazetový strop 124,00  nie
11458 25.05.2017 EUROFINS BEL/NOVAMANN s.r.o., Nové Zámky 31329209 monitoring podzemných a povrchových vôd 3 800,00  áno
11459 25.05.2017 Hansa-flex Hydraulik, Košťany n. Turcom 31642608 elektroinštalačný a spojovací materiál 6,53  nie
11460 25.05.2017 EKOL, spol. s r.o., Martin 31646808 vibrodiagnostika Tg01 a Tg5 1 290,00  nie
11461 25.05.2017 CHIVA SK spol. s r.o., Zvolen 46472762 armatúry 264,00  nie